Location: Emeryville
(37.8313°N, 122.2852°W)
Time: 23:22:04
(UTC+00:00)

Daily predictions for brighter satellites

Satellite Brightness Start Highest point End
(mag) Time Altitude Azimuth Time Altitude Azimuth Time Altitude Azimuth
NOSS 3-4 (A) 4.1 12:21:03 49° ENE 12:21:03 49° ENE 12:25:56 10° NE
NOSS 3-4 (C) 4.1 12:21:06 49° ENE 12:21:06 49° ENE 12:26:02 10° NE
CENTAUR R/B 4.0 12:21:46 28° N 12:25:49 45° NE 12:34:04 10° ESE
NOSS 3-2 (A) 4.1 12:27:08 64° N 12:28:25 76° ENE 12:36:56 10° SE
Cosmos 2154 Rocket 4.4 12:36:22 55° SSE 12:36:22 55° SSE 12:41:07 10° S
Cosmos 2322 Rocket 3.6 12:33:28 10° SSE 12:38:33 35° ESE 12:43:41 10° NE
Cosmos 2263 Rocket 3.4 12:42:06 26° NNE 12:44:38 39° ENE 12:49:55 10° SE
BREEZE-M DEB (TANK) 3.9 12:46:29 64° W 12:47:25 71° SW 12:51:41 10° SE
ATLAS 2AS CENTAUR R/B 2.9 12:53:16 62° W 12:54:22 69° NW 13:02:24 10° NNE
ALOS 3.6 12:51:16 10° NNE 12:55:38 38° E 12:59:56 10° SSE
Meteor 2-17 Rocket 4.3 12:53:31 37° N 12:56:08 87° E 13:02:10 10° S
Meteor 1-21 Rocket 4.2 12:56:20 43° N 12:58:26 87° ENE 13:04:22 10° S
Centaur D-1A AC-32 4.1 13:01:53 17° S 13:01:53 17° S 13:04:05 10° SE
USA 238 DEB 3.8 13:07:01 53° W 13:08:10 59° WSW 13:15:26 10° SSE
USA 238 3.8 13:07:04 53° W 13:08:16 59° WSW 13:15:33 10° SSE
Genesis I 4.1 13:10:00 43° NE 13:10:03 43° NE 13:13:41 10° SE
Cosmos 1908 3.9 13:08:42 10° S 13:12:30 53° E 13:16:20 10° NNE
Cosmos 1825 Rocket 3.8 13:13:30 55° S 13:13:30 55° S 13:16:57 10° S
Cosmos 972 Rocket 4.0 13:12:19 50° NNW 13:13:49 75° WSW 13:19:05 10° S
Gbstr 26 Del rocket 4.2 13:12:36 51° W 13:14:07 62° NNW 13:21:54 10° NE
BREEZE-M DEB (TANK) 4.2 13:16:21 25° N 13:16:37 25° N 13:22:54 10° ENE
FENGYUN 3A 3.9 13:13:58 10° NNE 13:19:22 68° ESE 13:24:45 10° S
Abrixas rocket 3.7 13:20:49 31° ESE 13:20:49 31° ESE 13:22:34 10° ESE
RESURS DK-1 3.2 13:15:53 10° S 13:19:52 51° ESE 13:23:53 10° NE
Cosmos 2058 Rocket 3.4 13:16:23 10° S 13:20:43 64° E 13:25:03 10° NNE
Okean O Rocket 3.3 13:16:49 10° NNE 13:20:51 34° E 13:24:52 10° SSE
SL-16 R/B 2.0 13:16:40 18° SSW 13:20:56 82° WNW 13:26:38 10° NNE
Cosmos 2344 4.4 13:21:02 28° NW 13:21:17 28° NW 13:28:09 10° NNE
Cosmos 2360 Rocket 3.4 13:18:26 10° S 13:23:44 43° ESE 13:29:03 10° NE
STARLINK 1063 4.4 13:23:42 29° S 13:25:24 49° SE 13:29:25 10° ENE
Cosmos 1726 Rocket 3.4 13:23:12 10° SSW 13:27:36 65° W 13:32:00 10° N
SL-8 Rocket 3.9 13:22:09 10° N 13:28:22 85° E 13:34:31 10° S
Lacrosse 5 1.9 13:28:03 53° W 13:28:48 60° NW 13:33:50 10° NE
STARLINK 1064 4.2 13:28:27 28° SSW 13:30:20 55° SE 13:34:23 10° ENE
Cosmos 1980 Rocket 3.9 13:32:58 16° NNW 13:32:58 16° NNW 13:34:40 10° N
Cosmos 2181 Rocket 3.9 13:26:01 10° SSW 13:32:13 72° W 13:38:33 10° N
COSMO-SKYMED 1 2.4 13:29:30 10° S 13:33:50 83° WSW 13:36:54 19° NNW
Cosmos 2228 4.5 13:36:17 24° NNW 13:36:17 24° NNW 13:38:09 10° N
STARLINK 1041 4.0 13:33:15 27° SSW 13:35:19 61° SE 13:39:25 10° NE
STARLINK-60 4.3 13:36:18 30° N 13:37:00 33° NE 13:40:05 10° ESE
SL-4 R/B 3.6 13:39:14 18° SSW 13:39:14 18° SSW 13:40:40 10° S
CZ-4B R/B 3.9 13:33:41 10° NNE 13:39:06 56° E 13:44:22 10° S
STARLINK 1038 3.8 13:38:02 25° SSW 13:40:17 68° SE 13:44:24 10° NE
Meteor 1-16 Rocket 4.4 13:34:50 10° SSW 13:40:33 51° WNW 13:46:14 10° N
COSMOS 2455 4.2 13:41:54 20° NW 13:41:54 20° NW 13:45:21 10° N
ATLAS 2A CENTAUR R/B 3.8 13:39:51 10° S 13:42:09 16° SE 13:46:13 10° ESE
Cosmos 1703 3.1 13:41:51 23° NNW 13:44:10 70° W 13:48:03 10° S
STARLINK 1046 3.7 13:42:50 24° SW 13:45:16 76° SE 13:49:25 10° NE
Cosmos 158 Rocket 3.8 13:41:24 10° SSW 13:46:10 56° WNW 13:51:02 10° N
Cosmos 2341 Rocket 4.2 13:41:31 10° NNW 13:47:27 47° W 13:53:20 10° SSW
STARLINK 1039 3.6 13:47:35 22° SW 13:50:12 84° SE 13:54:21 10° NE
STARLINK 1045 3.5 13:52:22 20° SW 13:55:10 88° NW 13:59:20 10° NE
ATLAS 3B R/B 2.7 13:51:26 12° NNW 13:57:43 84° WSW 14:04:43 10° SSE
ADEOS Rocket 3.7 13:53:13 10° SE 13:58:28 50° ENE 14:03:58 10° N
USA 32 4.3 13:53:56 10° NNW 13:58:52 43° W 14:03:47 10° SSW
STARLINK 1050 3.5 13:57:25 19° SW 14:00:17 76° NW 14:04:26 10° NE
NOSS 3-2 (C) 4.4 13:55:07 18° NW 14:00:54 47° WSW 14:08:57 10° S
Cosmos 1340 Rocket 4.4 13:58:21 10° SSE 14:01:58 38° E 14:05:37 10° NNE
USA 116 3.9 13:58:51 10° S 14:03:28 69° WSW 14:07:35 10° NNW
PAYLOAD B 4.2 13:59:06 10° N 14:04:39 63° WNW 14:10:09 10° SSW
Cosmos 864 Rocket 4.5 13:58:48 10° NNW 14:04:58 65° W 14:11:09 10° S
STARLINK 1055 3.5 14:02:09 17° WSW 14:05:13 70° NW 14:09:22 10° NE
USA 215 3.7 14:02:22 10° ESE 14:08:45 60° NE 14:15:09 10° NW
METEOR-M 4.5 14:04:36 10° N 14:09:36 41° WNW 14:14:34 10° SW
BREEZE-M DEB (TANK) 4.1 14:06:38 10° SW 14:09:45 73° SE 14:18:13 10° NE
STARLINK 1022 3.6 14:06:55 15° WSW 14:10:11 63° NW 14:14:19 10° NE
NOSS 3-4 (A) 4.4 14:08:33 19° WNW 14:11:09 26° NW 14:16:20 10° NNE
NOSS 3-4 (C) 4.4 14:08:36 19° W 14:11:15 26° NW 14:16:27 10° NNE
Cosmos 2218 Rocket 4.2 14:05:29 10° NNW 14:11:36 52° W 14:17:39 10° SSW
STARLINK 1042 3.7 14:11:41 14° WSW 14:15:10 57° NW 14:19:16 10° NE
CENTAUR R/B 3.5 14:08:59 11° NW 14:16:45 49° WSW 14:25:01 10° S
STARLINK 1056 3.8 14:16:28 12° WSW 14:20:10 52° NW 14:24:14 10° NE
BREEZE M DEB (TANK) 4.4 14:09:00 13° WNW 14:20:24 44° N 14:24:23 10° E
Alouette 2 Rocket 3.4 14:16:34 10° S 14:21:20 88° W 14:25:01 10° N
Cosmos 1371 Rocket 4.3 14:17:24 10° NNW 14:22:28 46° WSW 14:27:32 10° S
Cosmos 2322 Rocket 2.9 14:17:39 10° WSW 14:22:35 30° WNW 14:27:35 10° N
Meteor 1-11 4.5 14:17:29 10° NNW 14:22:49 46° W 14:28:12 10° SSW
STARLINK 1054 3.9 14:21:14 11° WSW 14:25:09 48° NW 14:29:10 10° NE
Meteor 2-12 Rocket 4.4 14:20:42 10° NNW 14:26:47 71° W 14:32:51 10° S
NOAA 6 4.3 14:22:42 10° N 14:27:38 45° WNW 14:32:33 10° SW
Cosmos 2263 Rocket 3.2 14:23:51 11° NW 14:28:18 26° WSW 14:32:56 10° SSW
Cosmos 1812 Rocket 3.5 14:24:08 10° S 14:28:29 79° W 14:32:55 10° N
Cosmos 1437 2.6 14:26:31 10° N 14:29:33 85° E 14:32:34 10° S
STARLINK 1062 4.0 14:26:09 10° WSW 14:30:07 44° NW 14:34:05 10° NE
Helios 1A Rocket 3.2 14:26:46 10° N 14:30:45 47° WNW 14:34:44 10° SSW
Cosmos 1300 2.9 14:27:35 10° SSW 14:31:16 47° W 14:34:58 10° N
Cosmos 1420 Rocket 4.1 14:26:53 10° NNW 14:32:13 84° ENE 14:37:32 10° SSE
ALOS 3.5 14:29:23 10° NNW 14:32:45 20° WNW 14:36:06 10° WSW
STARLINK 1053 4.1 14:31:14 10° WSW 14:35:09 40° NW 14:39:05 10° NE
FALCON 9 DEB 3.2 14:33:43 10° NW 14:37:14 79° NE 14:40:44 10° SE
H-2A R/B 2.8 14:34:32 10° N 14:38:22 60° WNW 14:42:10 10° SSW
Cosmos 1844 Rocket 3.0 14:34:23 10° NNW 14:40:03 75° ENE 14:45:42 10° SSE
STARLINK 1061 4.2 14:36:18 10° WSW 14:40:09 37° NW 14:44:02 10° NE
Cosmos 2333 Rocket 2.7 14:36:53 10° SSW 14:42:37 70° ESE 14:48:21 10° NNE
Cosmos 1455 3.9 14:40:44 10° SSE 14:44:19 39° E 14:47:57 10° NNE
IRS-1C Rocket 4.1 14:39:12 10° NNE 14:44:30 88° WNW 14:49:46 10° SSW
STARLINK 1067 4.3 14:41:21 10° W 14:45:09 34° NNW 14:48:58 10° NNE
CZ-4 R/B 3.9 14:42:08 10° NE 14:45:46 28° E 14:49:22 10° SSE
ATLAS 2AS CENTAUR R/B 4.3 14:41:23 10° WNW 14:46:55 20° NNW 14:52:25 10° N
YAOGAN 6 3.2 14:46:18 10° NNE 14:49:47 59° E 14:53:12 10° S
STARLINK 1058 4.5 14:46:21 10° W 14:50:06 32° NNW 14:53:51 10° NNE
